Regional Weather Roundup
Issued by NWS

Home | Current Version | Previous Version | Text Only | Print | Product List | Glossary On
Versions: 1 2 3 4 5 6 7 8 9 10 11 12 13 14 15 16 17 18 19 20 21 22 23 24 25 26 27 28 29 30 31 32 33 34 35 36 37 38 39 40 41 42 43 44 45 46 47 48 49 50
000
ASUS43 KLSX 210959
RWRMO

WEATHER SUMMARY FOR MISSOURI
NATIONAL WEATHER SERVICE SPRINGFIELD MO
500 AM CDT TUE APR 21 2015

NOTE: "FAIR" INDICATES FEW OR NO CLOUDS BELOW 12,000 FEET WITH NO
       SIGNIFICANT WEATHER AND/OR OBSTRUCTIONS TO VISIBILITY.
       CURRENT SKY AND/OR WEATHER CONDITIONS ARE NOT AVAILABLE FOR
       CHILLICOTHE AND FARMINGTON.

MOZ001>031-035>038-043-044-053-054-211100-
...NORTHERN AND WESTERN MISSOURI...

CITY           SKY/WX    TMP DP  RH WIND       PRES   REMARKS
KANSAS CTY INT CLOUDY    44  33  65 SW7       29.85S
KANSAS C DTWN  CLOUDY    47  33  58 CALM      29.86S
LEE`S SUMMIT   MOCLDY    45  32  60 SW3       29.86S
ST JOSEPH      CLOUDY    46  31  55 W9        29.84S
CHILLICOTHE      N/A     46  30  53 W5        29.83S
KIRKSVILLE     MOCLDY    44  27  51 W9        29.79S

$$
MOZ066>068-077>081-088>096-101>105-211100-
...SOUTHWEST MISSOURI...

CITY           SKY/WX    TMP DP  RH WIND       PRES   REMARKS
SPRINGFIELD    PTCLDY    43  34  70 SW10      29.90S
JOPLIN         CLEAR     48  36  63 SW12      29.93R

$$
MOZ032>034-039>042-045>050-055>058-069>072-211100-
...CENTRAL MISSOURI...

CITY           SKY/WX    TMP DP  RH WIND       PRES   REMARKS
COLUMBIA       CLEAR     44  32  62 W9        29.84R
JEFFERSON CITY CLEAR     45  30  55 NW3       29.85S
ROLLA          CLEAR     41  30  65 SW12      29.84F
SEDALIA        CLEAR     45  34  65 W8        29.86R
WHITEMAN AFB   FAIR      45  33  64 SW8       29.85R
OSAGE BEACH    PTCLDY    45  30  57 SW6       29.87F

$$
MOZ051-052-059>065-211100-
...EAST CENTRAL MISSOURI...

CITY           SKY/WX    TMP DP  RH WIND       PRES   REMARKS
ST LOUIS INTL  PTCLDY    47  28  47 SW12      29.82S
SPIRIT OF STL  CLEAR     45  29  53 SW10      29.82S
ST CHARLES     MOCLDY    43  31  62 W6        29.81S

$$
MOZ072>076-082>087-097>100-106>115-211100-
...SOUTH CENTRAL AND SOUTHEAST MISSOURI...

CITY           SKY/WX    TMP DP  RH WIND       PRES   REMARKS
CAPE GIRARDEAU CLEAR     43  37  79 SW5       29.90F
FARMINGTON     CLEAR     43  27  52 S3        29.90S
POPLAR BLUFF   CLEAR     44  33  65 SW3       29.92S
WEST PLAINS    CLEAR     41  31  67 SW5       29.93S

$$


USA.gov is the U.S. government's official web portal to all federal, state and local government web resources and services.